Cartersville, GA

8:01 PM EST on November 21, 2019 (GMT -0500)
Cartersville

Weather History for KVPC - September, 2019

Change the Weather History Date:

Thursday, September 26, 2019

  Actual Average Record
Temperature  
Mean Temperature 82 °F 67 °F  
Max Temperature 96 °F 79 °F 89 °F (2007)
Min Temperature 68 °F 56 °F 41 °F (2001)
Degree Days  
Heating Degree Days 0 1  
Month to date heating degree days 0 8  
Since 1 July heating degree days 0 8  
Cooling Degree Days 17 4  
Month to date cooling degree days 387 195  
Year to date cooling degree days 1959 1460  
Growing Degree Days 32 (Base 50)    
Moisture  
Dew Point 65 °F    
Average Humidity 63    
Maximum Humidity 84    
Minimum Humidity 35    
Precipitation  
Precipitation 0.01 in 0.13 in 1.86 in (1989)
Month to date precipitation 0.02 3.10  
Year to date precipitation 31.56 37.69  
Sea Level Pressure  
Sea Level Pressure 29.89 in    
Wind  
Wind Speed 1 mph ()    
Max Wind Speed 13 mph    
Max Gust Speed 17 mph    
Visibility 10.0 miles    
Events      
T = Trace of Precipitation, MM = Missing Value Source: Averaged Metar Reports

Daily Weather History Graph

Daily Weather History Graph

Search for Another Location

Airport or City:

Astronomy

Sep. 26, 2019 Rise Set
Actual Time 7:30 AM EDT 7:30 PM EDT
Civil Twilight 7:05 AM EDT 7:55 PM EDT
Nautical Twilight 6:36 AM EDT 8:24 PM EDT
Astronomical Twilight 6:06 AM EDT 8:54 PM EDT
Moon 4:47 AM EDT (9/26) 6:34 PM EDT (9/26)
Length of Visible Light 12h 50m
Length of Day
12h 00m
Waning Crescent, 7% of the Moon is Illuminated
Sep 26
Waning Crescent
Sep 28
New
Oct 5
First Quarter
Oct 13
Full
Oct 21
Last Quarter

Hourly Weather History & Observations

Time (EDT) Temp. Heat Index Dew Point Humidity Pressure Visibility Wind Dir Wind Speed Gust Speed Precip Events Conditions
12:53 AM 70.0 °F - 64.0 °F 81% 29.88 in 10.0 mi Calm Calm - N/A   Clear
1:53 AM 71.1 °F - 64.0 °F 78% 29.88 in 10.0 mi Calm Calm - N/A   Clear
2:53 AM 69.1 °F - 64.0 °F 84% 29.87 in 10.0 mi Calm Calm - N/A   Clear
3:53 AM 69.1 °F - 64.0 °F 84% 29.86 in 10.0 mi Calm Calm - N/A   Mostly Cloudy
4:53 AM 70.0 °F - 64.0 °F 81% 29.87 in 10.0 mi Calm Calm - N/A   Mostly Cloudy
5:53 AM 70.0 °F - 64.0 °F 81% 29.89 in 10.0 mi Calm Calm - N/A   Mostly Cloudy
6:53 AM 70.0 °F - 64.9 °F 84% 29.90 in 10.0 mi Calm Calm - N/A   Clear
7:53 AM 70.0 °F - 64.9 °F 84% 29.92 in 10.0 mi Calm Calm - N/A   Partly Cloudy
8:53 AM 73.9 °F - 66.0 °F 76% 29.94 in 10.0 mi Calm Calm - N/A   Scattered Clouds
9:53 AM 81.0 °F 82.7 °F 64.9 °F 58% 29.94 in 10.0 mi Calm Calm - N/A   Scattered Clouds
10:53 AM 84.0 °F 86.3 °F 66.0 °F 55% 29.94 in 10.0 mi Calm Calm - N/A   Clear
11:53 AM 91.0 °F 94.3 °F 66.9 °F 45% 29.94 in 10.0 mi Variable 4.6 mph - N/A   Partly Cloudy
12:53 PM 93.9 °F 95.6 °F 64.0 °F 37% 29.92 in 10.0 mi North 10.4 mph - N/A   Clear
1:53 PM 93.9 °F 96.1 °F 64.9 °F 38% 29.90 in 10.0 mi Calm Calm - N/A   Scattered Clouds
2:53 PM 91.9 °F 92.9 °F 63.0 °F 38% 29.88 in 10.0 mi North 5.8 mph - N/A   Partly Cloudy
3:53 PM 87.1 °F 90.6 °F 68.0 °F 53% 29.87 in 10.0 mi Calm Calm - 0.01 in   Partly Cloudy
4:53 PM 96.1 °F 98.3 °F 64.0 °F 35% 29.85 in 10.0 mi Variable 5.8 mph - N/A   Partly Cloudy
5:53 PM 93.9 °F 95.2 °F 63.0 °F 36% 29.85 in 10.0 mi Variable 3.5 mph - N/A   Partly Cloudy
6:53 PM 91.0 °F 91.9 °F 63.0 °F 39% 29.85 in 10.0 mi Calm Calm - N/A   Clear
7:53 PM 84.9 °F 86.6 °F 64.9 °F 51% 29.88 in 10.0 mi North 10.4 mph - N/A   Clear
8:53 PM 81.0 °F 83.0 °F 66.0 °F 60% 29.89 in 10.0 mi Calm Calm - N/A   Clear
9:53 PM 75.9 °F - 66.0 °F 71% 29.90 in 10.0 mi Calm Calm - N/A   Clear
10:53 PM 75.0 °F - 66.0 °F 73% 29.92 in 10.0 mi Calm Calm - N/A   Clear
11:53 PM 73.0 °F - 66.0 °F 79% 29.93 in 10.0 mi Calm Calm - N/A   Clear